Snowfall_Accumulation
0.0 0.0 0.0 0.0 0.0 0.0 0.0 0.0 0.0 0.0 0.0 0.0 0.0 0.0 0.0 0.0 0.0 0.0 0.0 0.0 6.5 16.6 1.2 0.0 0.1 2.1 2.8 3.9 6.2 4.8 7.4 4.2 5.4 10.2 7.1 5.4 4.4 3.5 1.9 0.1 1.8 4.3 3.3 2.9 3.1 5.5 2.1 0.0 0.0 0.9 1.9 0.5 2.4 3.6
0.0 0.0 0.0 0.0 0.0 0.0 0.0 0.0 0.0 0.0 0.0 0.0 0.0 0.0 0.0 0.0 0.0 0.0 1.5 0.0 0.0 8.1 6.9 0.9 0.3 0.0 0.6 2.0 4.5 4.7 7.9 4.9 6.6 9.3 9.9 7.9 6.5 4.9 1.3 2.1 0.1 6.4 4.3 3.2 1.4 0.3 0.0 0.0 0.0 0.0 0.0 0.9 0.9 3.6
0.0 0.0 0.0 0.0 0.0 0.0 0.0 0.0 0.0 0.0 0.0 0.0 0.0 0.0 0.0 0.0 0.0 0.0 0.0 0.0 1.4 13.7 7.0 4.6 2.8 0.9 0.0 0.0 2.3 7.7 4.9 7.8 8.1 10.8 14.7 7.6 9.3 4.9 3.9 2.5 1.7 1.2 0.8 1.1 0.1 0.0 0.0 0.0 0.0 0.0 0.0 0.4 0.3 2.0
0.0 0.0 0.0 0.0 0.0 0.0 0.0 0.0 0.0 0.0 0.0 0.0 0.0 0.0 0.0 0.0 0.0 0.0 0.0 0.0 4.0 13.8 13.8 3.0 0.0 1.5 0.5 0.0 1.6 1.9 4.2 7.1 12.5 12.9 24.3 20.9 11.5 6.1 4.4 3.8 3.2 1.7 0.1 0.3 0.2 0.0 0.1 0.0 0.0 0.2 0.1 0.0 0.1 0.2
0.0 0.0 0.0 0.0 0.0 0.0 0.0 0.0 0.0 0.0 0.0 0.0 0.0 0.0 0.0 0.0 0.0 0.0 0.0 0.0 0.0 12.9 9.7 3.2 1.8 2.2 1.5 0.2 2.9 6.4 9.6 13.1 22.8 30.8 30.3 20.9 9.7 9.3 4.3 7.3 5.0 1.7 1.7 1.4 0.2 0.0 0.6 0.3 0.1 0.0 0.5 0.7 0.9 1.6
0.0 0.0 0.0 0.0 0.0 0.0 0.0 0.0 0.0 0.0 0.0 0.0 0.0 0.0 0.0 0.0 0.0 1.8 5.0 3.6 3.2 5.8 15.1 12.4 2.6 2.4 3.1 4.8 8.3 11.1 12.8 16.4 18.0 17.7 20.5 15.4 9.9 12.9 12.4 7.7 3.1 2.0 0.9 1.2 1.4 0.0 0.2 0.3 0.2 0.3 1.1 0.7 1.4 1.8
0.0 0.0 0.0 0.0 0.0 0.0 0.0 0.0 0.0 0.0 0.0 0.0 0.0 0.0 0.0 0.0 0.0 5.6 4.9 4.5 2.8 3.7 10.2 22.9 8.6 3.2 4.2 5.0 7.0 9.9 10.1 10.4 12.2 12.7 13.6 10.7 8.8 9.9 11.4 6.6 4.7 3.1 2.1 1.1 0.3 1.1 1.0 0.6 1.2 0.5 1.1 1.0 1.4 1.8
0.0 0.0 0.0 0.0 0.0 0.0 0.0 0.0 0.0 0.0 0.0 0.0 0.0 0.0 0.0 0.0 0.0 5.5 3.2 0.0 3.5 7.6 9.2 24.7 11.5 5.5 2.4 4.3 6.4 4.7 8.4 7.9 9.9 10.3 10.0 7.8 7.4 8.4 14.5 8.1 7.4 5.7 3.7 2.6 1.9 2.0 1.9 1.9 1.2 1.3 1.3 1.1 1.1 2.6
0.0 0.0 0.0 0.0 0.0 0.0 0.0 0.0 0.0 0.0 0.0 0.0 0.0 0.0 0.0 14.1 13.7 10.7 0.0 0.0 3.3 7.3 27.8 16.3 8.4 8.7 2.1 3.3 5.7 7.5 7.8 13.2 7.5 11.5 8.7 5.1 7.0 14.7 11.9 9.5 8.1 7.7 5.4 6.1 3.1 2.8 3.1 2.4 2.8 2.7 2.5 2.3 2.3 4.1
0.0 0.0 0.0 0.0 0.0 0.0 0.0 0.0 0.0 0.0 0.0 0.0 0.0 18.8 48.9 21.9 0.0 0.5 14.1 18.6 30.2 28.1 21.1 15.8 2.4 6.1 2.3 3.0 8.5 7.3 6.5 9.3 14.0 6.8 3.2 8.2 12.7 13.4 13.4 12.2 11.8 10.9 10.4 7.8 4.5 5.9 3.9 4.0 4.4 4.8 5.4 5.6 5.3 6.2
0.0 0.0 0.0 0.0 0.0 0.0 0.0 0.0 0.0 0.0 0.0 0.8 33.0 41.9 28.3 1.6 15.5 18.5 44.7 40.8 25.9 21.4 9.1 4.7 2.9 5.1 2.6 8.8 9.1 9.5 14.4 9.0 15.3 6.2 4.7 9.6 12.4 17.0 13.4 12.2 12.2 11.6 11.1 11.1 9.1 8.8 6.4 6.6 6.7 5.1 5.1 5.3 5.4 4.9
0.0 0.0 0.0 0.0 0.0 0.0 0.0 0.0 0.0 1.1 20.4 6.3 14.5 18.0 22.3 36.4 42.4 44.3 37.6 20.7 12.2 3.2 2.0 3.5 4.7 4.6 3.8 4.4 13.0 12.6 17.0 16.3 12.5 4.0 7.9 10.4 16.8 15.3 11.6 11.8 11.9 11.0 9.4 10.6 8.6 7.9 7.4 6.6 5.6 5.1 5.3 5.5 5.3 5.8
0.0 0.0 0.0 0.0 0.0 0.0 0.0 0.0 0.0 0.0 0.7 21.0 59.5 75.9 67.0 58.4 46.7 30.6 16.2 6.8 2.8 1.9 2.6 5.5 5.4 2.4 3.2 8.0 15.0 16.1 14.6 10.9 4.6 7.8 5.7 10.2 11.8 10.6 11.1 9.5 9.4 9.4 9.4 9.9 8.5 8.4 6.6 6.0 4.6 3.9 4.7 7.6 5.5 5.5
0.0 0.0 0.0 0.0 0.0 0.0 0.0 0.0 0.0 0.2 12.2 71.4 91.0 81.0 48.1 37.7 15.7 8.5 4.5 3.3 3.4 3.7 3.1 2.3 3.0 4.8 3.4 11.4 14.2 15.5 9.0 8.2 6.9 4.3 4.5 7.1 6.5 5.8 5.4 7.0 5.9 6.4 4.7 4.3 5.4 5.3 3.6 2.5 2.8 2.5 2.7 1.6 1.4 1.2
0.0 0.0 0.0 0.0 0.0 0.0 0.0 0.0 0.0 0.6 34.9 97.2 70.5 47.7 29.4 11.0 6.8 4.6 3.5 2.8 1.5 1.2 1.6 0.7 1.7 6.2 8.3 15.3 11.7 7.1 9.8 3.9 1.7 2.7 3.7 4.2 3.3 2.3 1.9 2.8 5.2 4.5 2.9 1.5 1.1 0.8 1.3 1.6 1.3 1.1 0.7 0.6 0.5 0.6
0.0 0.0 0.0 0.0 0.0 0.0 3.3 0.1 9.8 29.6 100.0 91.8 60.7 31.1 10.2 2.4 2.4 1.4 1.1 1.1 0.6 0.3 1.2 6.3 12.9 16.6 13.2 11.2 9.5 5.3 5.6 3.7 3.2 2.6 2.6 1.6 0.3 0.5 0.6 2.2 3.3 1.5 1.5 1.7 1.2 0.0 0.2 0.2 0.3 0.5 0.5 0.7 0.8 0.8
0.0 4.2 0.0 0.0 0.0 0.1 0.0 5.2 64.5 105.7 106.4 80.8 36.8 11.8 5.4 3.9 3.7 2.0 1.2 0.9 0.5 4.0 7.6 13.7 17.9 12.4 7.6 7.9 3.8 1.5 2.7 2.9 1.5 1.9 0.6 0.0 0.0 0.0 0.6 1.2 2.4 1.5 1.9 2.3 1.8 0.5 0.0 0.0 0.2 0.2 0.4 0.7 0.9 1.0
1.9 0.0 0.0 0.1 1.0 15.2 23.3 60.1 91.6 103.0 75.0 32.7 11.2 5.2 3.8 3.4 3.1 2.6 2.2 2.4 4.4 8.1 10.3 13.4 10.2 10.6 9.4 6.0 3.7 4.4 3.5 2.2 0.5 0.2 0.0 0.0 0.0 0.0 0.0 0.8 1.9 2.1 2.1 1.7 0.9 0.0 0.3 0.2 0.2 0.5 0.7 1.3 1.0 1.0
0.7 0.6 0.0 0.0 0.4 38.2 100.4 101.5 68.7 52.9 25.1 8.8 5.3 4.9 4.2 2.9 1.3 1.8 2.5 3.8 4.8 7.0 10.7 14.2 17.6 11.6 4.3 4.9 5.2 3.2 1.6 0.4 0.1 0.1 0.1 0.1 0.1 0.0 0.0 0.0 0.0 0.0 0.6 0.7 0.7 0.5 0.3 0.1 0.4 1.5 1.4 1.0 1.3 1.3
0.0 0.0 5.0 4.4 0.9 85.4 79.9 67.1 40.7 21.7 11.5 8.8 6.8 7.2 6.9 4.9 3.1 4.2 5.3 5.4 5.7 10.9 15.9 15.9 7.0 3.7 3.5 4.0 3.5 2.0 1.0 0.2 0.3 0.4 0.2 0.1 0.0 0.0 0.0 0.0 0.0 0.0 0.0 0.0 0.0 0.0 0.1 0.8 0.2 0.0 0.4 0.8 1.7 1.6
9.7 14.3 14.4 4.8 48.6 75.9 57.8 31.8 24.2 17.5 12.5 9.5 11.7 10.0 11.3 8.4 7.0 6.3 8.2 5.8 14.4 17.3 12.0 6.9 4.6 3.9 3.5 2.3 0.8 0.6 0.6 0.5 0.4 0.3 0.2 0.1 0.0 0.0 0.0 0.0 0.0 0.0 0.1 0.1 0.4 0.7 0.3 0.3 0.5 0.3 0.4 0.8 0.3 1.1
13.9 7.8 21.0 22.0 69.2 56.3 39.6 21.7 16.2 13.0 8.5 12.0 13.1 12.1 13.4 12.9 12.8 12.5 11.1 17.6 18.5 8.5 5.5 5.0 3.5 2.7 1.8 1.0 0.9 1.2 0.6 0.8 0.4 0.2 0.1 0.0 0.0 0.0 0.0 0.0 0.0 0.6 0.8 0.8 1.1 1.2 0.7 0.5 1.3 1.7 1.1 0.8 1.0 1.3
6.0 12.8 45.1 54.3 50.5 34.2 28.3 16.1 13.3 13.6 15.3 17.6 16.1 14.5 15.9 13.6 14.7 14.4 19.1 12.9 7.5 6.0 4.7 3.8 2.8 2.5 1.8 2.0 1.4 0.8 0.6 0.5 0.5 0.5 0.3 0.1 0.1 0.1 0.0 0.2 0.7 2.5 2.2 0.6 0.1 1.8 1.8 1.0 1.0 2.2 1.6 1.3 1.3 1.7
5.3 52.9 54.5 44.3 27.9 19.9 13.3 12.6 8.9 7.4 12.1 13.3 13.1 12.5 9.1 9.8 13.1 15.6 10.6 4.4 4.8 4.7 3.5 3.9 3.1 1.9 2.0 1.5 1.8 1.2 1.0 0.5 0.8 0.7 1.0 0.7 0.6 0.5 0.2 0.6 0.8 0.8 1.4 1.4 2.2 2.2 1.9 2.3 2.5 3.2 2.8 3.1 2.9 4.5
67.4 59.4 35.5 25.9 13.4 6.9 4.0 5.4 6.6 6.3 5.3 7.0 7.2 8.7 6.9 8.5 11.2 8.1 4.1 3.7 4.5 4.8 4.0 3.1 3.0 3.2 1.9 2.7 1.7 2.3 1.9 2.6 2.9 1.8 0.8 1.5 3.4 3.1 0.8 0.8 0.4 0.6 2.2 4.7 4.0 2.8 2.3 3.8 4.4 3.6 3.3 4.1 4.4 3.8
37.6 18.8 16.7 4.5 1.5 0.2 0.8 1.6 2.8 3.0 3.2 5.0 6.3 6.3 6.7 8.0 6.3 4.4 2.9 3.3 4.2 5.1 5.4 4.6 3.5 2.6 3.3 2.3 4.7 3.7 2.5 2.1 2.2 4.9 3.0 2.7 3.1 5.0 3.5 2.0 1.3 1.7 2.0 8.5 10.5 8.7 5.8 4.5 5.7 4.5 4.8 3.9 5.0 7.1
17.4 6.6 3.1 0.3 0.6 0.6 0.6 1.0 1.3 1.6 4.1 4.2 3.0 2.9 5.2 8.0 3.3 1.9 1.8 2.4 3.5 4.4 4.6 4.5 4.0 4.1 3.8 4.2 4.1 4.5 4.6 4.1 5.0 3.0 3.4 3.6 3.3 3.4 5.5 9.0 6.9 2.2 4.5 8.9 10.4 10.0 9.4 6.9 6.5 6.5 6.4 5.4 5.1 5.3
2.8 0.1 0.7 0.6 0.4 0.7 0.9 1.4 1.6 1.6 2.3 1.4 2.2 2.9 3.2 1.9 0.8 0.9 1.5 2.0 3.4 4.2 5.0 5.4 5.3 5.0 5.2 5.0 5.8 8.3 7.7 6.4 6.1 4.9 3.9 3.7 4.1 6.7 7.7 9.0 9.2 9.9 10.6 10.4 13.5 12.4 10.7 9.7 9.0 7.8 7.4 6.5 4.0 4.4
1.3 0.1 0.1 1.9 3.1 3.6 3.5 2.6 1.9 1.3 0.8 0.7 1.8 2.0 1.4 1.0 1.1 1.0 1.6 2.6 3.9 4.7 5.6 6.1 6.7 6.7 8.7 8.5 7.9 8.0 8.6 8.5 8.5 5.9 2.5 2.7 3.3 5.0 9.4 10.1 10.3 11.0 10.6 10.4 9.5 11.6 11.0 11.7 11.2 10.1 7.8 6.4 5.0 6.2
1.1 1.3 2.0 2.8 2.5 1.7 1.6 1.0 1.0 1.0 2.1 2.5 2.2 1.9 1.3 1.3 1.7 1.8 1.7 1.9 3.2 4.9 6.5 7.6 8.9 10.6 9.4 8.2 8.7 9.3 10.9 11.9 10.6 9.0 7.2 3.9 3.7 5.0 7.6 10.1 11.2 9.8 10.7 11.4 10.7 10.6 10.4 9.3 8.9 8.9 8.4 7.3 6.9 7.3
2.5 2.8 2.4 2.2 1.8 1.5 2.3 3.1 3.8 3.7 3.5 3.0 2.5 2.3 1.9 1.1 1.3 1.4 1.5 2.1 2.6 4.7 7.1 7.9 9.2 11.0 10.5 8.6 8.8 8.6 8.2 8.8 9.6 9.5 9.0 9.6 8.5 8.8 10.2 11.9 11.6 12.2 12.1 11.9 10.4 10.1 9.5 7.3 5.8 5.8 5.2 5.0 5.5 5.3
3.1 3.1 2.7 2.2 2.0 3.2 3.8 3.4 3.0 2.6 2.6 2.3 1.9 1.5 1.9 1.6 1.3 0.8 1.1 2.1 3.3 5.0 6.8 7.9 8.2 8.2 7.9 8.4 7.6 7.8 7.0 6.8 6.7 7.2 7.8 8.8 8.4 7.8 10.1 10.7 10.4 10.2 10.5 11.2 10.2 9.6 8.7 7.6 7.7 7.2 7.2 7.0 6.6 6.0
3.9 3.4 2.9 3.2 3.7 3.1 3.2 2.2 2.5 2.5 2.2 2.0 1.5 1.3 1.2 1.5 1.8 1.2 1.7 2.2 3.1 4.0 4.5 4.6 5.7 7.2 7.3 6.6 6.4 6.7 6.3 8.1 7.8 7.9 9.2 9.4 9.3 9.5 10.5 8.4 7.6 8.2 8.5 9.5 9.9 9.2 9.2 8.8 7.9 7.2 7.3 7.1 7.0 6.8